Omaha, NE

1:43 PM CDT on July 26, 2016 (GMT -0500)
Millard Municipal

Weather History for KMLE - January, 2014

Change the Weather History Date:

Sunday, January 19, 2014

  Actual Average (KOMA) Record (KOMA)
Temperature  
Mean Temperature 42 °F 23 °F  
Max Temperature 66 °F 33 °F 65 °F (2014)
Min Temperature 17 °F 13 °F -26 °F (1892)
Degree Days  
Heating Degree Days 24 42  
Month to date heating degree days 798  
Since 1 July heating degree days 3277  
Cooling Degree Days 0 0  
Month to date cooling degree days 0  
Year to date cooling degree days 0  
Moisture  
Dew Point 20 °F    
Average Humidity 47    
Maximum Humidity 85    
Minimum Humidity 17    
Precipitation  
Precipitation 0.00 in 0.02 in 0.53 in (1958)
Month to date precipitation 0.42  
Year to date precipitation 0.42  
Snow  
Snow 0.00 in 0.20 in - ()
Month to date snowfall 3.7  
Since 1 July snowfall 12.7  
Snow Depth -    
Sea Level Pressure  
Sea Level Pressure 29.81 in    
Wind  
Wind Speed 4 mph (West)    
Max Wind Speed 22 mph    
Max Gust Speed 26 mph    
Visibility 10 miles    
Events      
T = Trace of Precipitation, MM = Missing Value Source: NWS Daily Summary

Daily Weather History Graph

Daily Weather History Graph

Search for Another Location

Airport or City:

Trip Planner

Search our weather history database for the weather conditions in past years. The results will help you decide how hot, cold, wet, or windy it might be!

Date:

Astronomy

Jan. 19, 2014 Rise Set
Actual Time 7:45 AM CST 5:25 PM CST
Civil Twilight 7:15 AM CST 5:55 PM CST
Nautical Twilight 6:41 AM CST 6:29 PM CST
Astronomical Twilight 6:08 AM CST 7:01 PM CST
Moon 9:06 PM CST (1/19) 9:13 AM CST (1/19)
Length of Visible Light 10h 39m
Length of Day
9h 39m
Waning Gibbous, 89% of the Moon is Illuminated
Jan 19
Waning Gibbous
Jan 23
Last Quarter
Jan 30
New
Feb 6
First Quarter
Feb 14
Full

Hourly Weather History & Observations

Time (CST) Temp. Windchill Dew Point Humidity Pressure Visibility Wind Dir Wind Speed Gust Speed Precip Events Conditions
12:15 AM 19.9 °F - 15.3 °F 82% 30.02 in 10.0 mi Calm Calm - N/A   Clear
12:35 AM 19.4 °F - 14.9 °F 83% 30.01 in 10.0 mi Calm Calm - N/A   Clear
12:55 AM 18.5 °F - 14.5 °F 85% 30.00 in 10.0 mi Calm Calm - N/A   Clear
1:15 AM 17.6 °F - 13.8 °F 85% 30.00 in 10.0 mi Calm Calm - N/A   Clear
1:35 AM 18.7 °F - 14.4 °F 83% 30.00 in 10.0 mi Calm Calm - N/A   Clear
1:55 AM 18.3 °F - 14.0 °F 83% 29.99 in 10.0 mi Calm Calm - N/A   Clear
2:15 AM 17.6 °F - 13.8 °F 85% 29.98 in 10.0 mi Calm Calm - N/A   Clear
2:35 AM 20.8 °F 16.0 °F 17.1 °F 85% 29.95 in 10.0 mi SW 3.5 mph - N/A   Clear
2:55 AM 23.2 °F 17.2 °F 17.8 °F 80% 29.94 in 10.0 mi SW 4.6 mph - N/A   Clear
3:15 AM 24.6 °F - 18.9 °F 79% 29.93 in 10.0 mi Calm Calm - N/A   Clear
3:35 AM 25.7 °F - 19.4 °F 77% 29.91 in 10.0 mi Calm Calm - N/A   Clear
3:55 AM 29.1 °F 24.1 °F 20.8 °F 71% 29.91 in 10.0 mi SW 4.6 mph - N/A   Clear
4:15 AM 30.0 °F 21.7 °F 21.0 °F 69% 29.89 in 10.0 mi WSW 9.2 mph - N/A   Clear
4:35 AM 30.2 °F 21.9 °F 20.8 °F 68% 29.89 in 10.0 mi WSW 9.2 mph 18.4 mph N/A   Clear
4:55 AM 30.0 °F 24.1 °F 20.5 °F 68% 29.89 in 10.0 mi SW 5.8 mph - N/A   Clear
5:15 AM 29.8 °F 21.5 °F 20.3 °F 68% 29.87 in 10.0 mi WSW 9.2 mph - N/A   Clear
5:35 AM 30.2 °F 21.3 °F 20.3 °F 67% 29.85 in 10.0 mi WSW 10.4 mph 17.3 mph N/A   Clear
5:55 AM 30.9 °F 21.7 °F 20.1 °F 64% 29.85 in 10.0 mi WSW 11.5 mph 21.9 mph N/A   Clear
6:15 AM 31.1 °F 25.4 °F 19.4 °F 62% 29.84 in 10.0 mi WSW 5.8 mph 16.1 mph N/A   Clear
6:35 AM 30.6 °F 27.1 °F 19.4 °F 63% 29.84 in 10.0 mi West 3.5 mph - N/A   Clear
6:55 AM 30.6 °F 23.8 °F 19.2 °F 63% 29.83 in 10.0 mi WSW 6.9 mph 16.1 mph N/A   Clear
7:15 AM 31.5 °F 25.8 °F 19.0 °F 60% 29.83 in 10.0 mi West 5.8 mph - N/A   Clear
7:35 AM 30.0 °F - 18.7 °F 63% 29.83 in 10.0 mi Calm Calm - N/A   Clear
7:55 AM 30.9 °F - 18.5 °F 60% 29.83 in 10.0 mi Calm Calm - N/A   Clear
8:15 AM 31.5 °F - 18.5 °F 59% 29.82 in 10.0 mi Calm Calm - N/A   Clear
8:35 AM 32.4 °F 29.1 °F 18.9 °F 58% 29.81 in 10.0 mi WNW 3.5 mph - N/A   Clear
8:55 AM 33.6 °F 30.6 °F 19.2 °F 56% 29.80 in 10.0 mi West 3.5 mph - N/A   Clear
9:15 AM 34.9 °F 29.9 °F 19.4 °F 53% 29.81 in 10.0 mi West 5.8 mph - N/A   Clear
9:35 AM 35.8 °F 28.8 °F 19.6 °F 52% 29.81 in 10.0 mi West 9.2 mph - N/A   Clear
9:55 AM 36.7 °F 31.2 °F 20.1 °F 51% 29.81 in 10.0 mi West 6.9 mph - N/A   Clear
10:15 AM 38.8 °F 32.1 °F 20.8 °F 48% 29.81 in 10.0 mi West 10.4 mph - N/A   Clear
10:35 AM 40.8 °F 35.0 °F 21.2 °F 46% 29.80 in 10.0 mi West 9.2 mph 16.1 mph N/A   Clear
10:55 AM 43.0 °F 39.5 °F 21.7 °F 43% 29.79 in 10.0 mi WSW 5.8 mph - N/A   Clear
11:15 AM 45.0 °F 41.2 °F 21.7 °F 40% 29.78 in 10.0 mi West 6.9 mph - N/A   Clear
11:35 AM 47.7 °F - 22.1 °F 37% 29.77 in 10.0 mi West 8.1 mph - N/A   Clear
11:55 AM 49.5 °F - 22.3 °F 34% 29.76 in 10.0 mi SW 3.5 mph - N/A   Clear
12:15 PM 51.6 °F - 23.0 °F 33% 29.74 in 10.0 mi West 4.6 mph - N/A   Clear
12:35 PM 54.0 °F - 23.0 °F 30% 29.73 in 10.0 mi WSW 5.8 mph - N/A   Clear
12:55 PM 56.1 °F - 23.0 °F 28% 29.72 in 10.0 mi WSW 8.1 mph - N/A   Clear
1:15 PM 57.2 °F - 23.2 °F 27% 29.71 in 10.0 mi SW 8.1 mph - N/A   Clear
1:35 PM 59.9 °F - 23.4 °F 25% 29.69 in 10.0 mi WSW 12.7 mph 17.3 mph N/A   Clear
1:55 PM 61.5 °F - 23.0 °F 23% 29.68 in 10.0 mi West 11.5 mph 19.6 mph N/A   Clear
2:15 PM 63.1 °F - 21.9 °F 21% 29.68 in 10.0 mi West 9.2 mph 17.3 mph N/A   Clear
2:35 PM 64.8 °F - 21.7 °F 19% 29.66 in 10.0 mi West 10.4 mph 17.3 mph N/A   Clear
2:55 PM 65.7 °F - 20.8 °F 18% 29.66 in 10.0 mi West 12.7 mph 24.2 mph N/A   Clear
3:15 PM 66.2 °F - 20.3 °F 17% 29.66 in 10.0 mi WNW 21.9 mph 26.5 mph N/A   Clear
3:35 PM 65.7 °F - 20.5 °F 18% 29.66 in 10.0 mi West 18.4 mph 23.0 mph N/A   Clear
3:55 PM 65.7 °F - 20.8 °F 18% 29.67 in 10.0 mi West 10.4 mph 21.9 mph N/A   Clear
4:15 PM 64.9 °F - 20.8 °F 19% 29.67 in 10.0 mi West 9.2 mph 19.6 mph N/A   Clear
4:35 PM 64.8 °F - 20.5 °F 18% 29.68 in 10.0 mi WNW 8.1 mph - N/A   Clear
4:55 PM 63.3 °F - 18.9 °F 18% 29.69 in 10.0 mi WNW 12.7 mph 17.3 mph N/A   Clear
5:15 PM 62.1 °F - 16.3 °F 17% 29.70 in 10.0 mi WNW 6.9 mph - N/A   Clear
5:35 PM 60.3 °F - 15.6 °F 18% 29.71 in 10.0 mi WNW 8.1 mph - N/A   Clear
5:55 PM 59.2 °F - 15.4 °F 18% 29.72 in 10.0 mi NW 8.1 mph - N/A   Clear
6:15 PM 58.1 °F - 15.8 °F 19% 29.74 in 10.0 mi NW 5.8 mph - N/A   Clear
6:55 PM 55.2 °F - 20.8 °F 26% 29.76 in 10.0 mi NW 10.4 mph - N/A   Clear
7:15 PM 54.5 °F - 21.0 °F 27% 29.78 in 10.0 mi NW 10.4 mph 16.1 mph N/A   Clear
7:35 PM 52.9 °F - 21.0 °F 29% 29.79 in 10.0 mi NNW 8.1 mph - N/A   Clear
7:55 PM 51.4 °F - 21.4 °F 31% 29.80 in 10.0 mi NNW 4.6 mph - N/A   Clear
8:15 PM 51.3 °F - 21.7 °F 31% 29.80 in 10.0 mi NNW 8.1 mph - N/A   Clear
8:35 PM 51.1 °F - 22.5 °F 33% 29.81 in 10.0 mi NNW 8.1 mph 16.1 mph N/A   Clear
8:55 PM 49.8 °F - 22.6 °F 34% 29.82 in 10.0 mi NW 6.9 mph - N/A   Clear
9:15 PM 47.8 °F - 22.6 °F 37% 29.83 in 10.0 mi NW 4.6 mph - N/A   Clear
9:35 PM 47.3 °F - 23.0 °F 38% 29.83 in 10.0 mi NNW 3.5 mph - N/A   Clear
9:55 PM 45.9 °F - 22.5 °F 40% 29.84 in 10.0 mi Calm Calm - N/A   Clear
10:15 PM 44.1 °F - 22.5 °F 42% 29.84 in 10.0 mi Calm Calm - N/A   Clear
10:35 PM 43.9 °F - 22.1 °F 42% 29.85 in 10.0 mi Calm Calm - N/A   Clear
10:55 PM 42.6 °F - 22.3 °F 45% 29.85 in 10.0 mi Calm Calm - N/A   Clear
11:15 PM 40.8 °F - 22.3 °F 48% 29.85 in 10.0 mi Calm Calm - N/A   Clear
11:35 PM 39.7 °F 37.6 °F 22.1 °F 49% 29.86 in 10.0 mi NW 3.5 mph - N/A   Clear
11:55 PM 41.4 °F 39.4 °F 22.8 °F 48% 29.85 in 10.0 mi NNW 3.5 mph - N/A   Clear